Regional Weather Roundup
Issued by NWS Albany, NY

Home | Current Version | Previous Version | Graphics & Text | Print | Product List | Glossary Off
Versions: 1 2 3 4 5 6 7 8 9 10 11 12 13 14 15 16 17 18 19 20 21 22 23 24 25 26 27 28 29 30 31 32 33 34 35 36 37 38 39 40 41 42 43 44 45 46 47 48 49

000
ASUS41 KALY 200010
RWRALY

NEW YORK STATE HOURLY WEATHER ROUNDUP
NATIONAL WEATHER SERVICE ALBANY NY
700 PM EST FRI DEC 19 2014

NOTE: "FAIR" INDICATES FEW OR NO CLOUDS BELOW 12,000 FEET WITH NO
SIGNIFICANT WEATHER AND/OR NO OBSTRUCTIONS TO VISIBILITY.

NYZ032-033-038>043-046>054-057>066-NYZ062>081-200100-
EAST


CITY           SKY/WX    TMP DP  RH WIND       PRES   REMARKS
ALBANY         CLOUDY    29  20  69 NW13      30.16R WCI  19
GLENS FALLS    CLOUDY    27  20  75 E3        30.16R
POUGHKEEPSIE   CLOUDY    31  20  63 N3        30.14R
MONTGOMERY     CLOUDY    31  20  63 NW8       30.13R WCI  23
WHITE PLAINS   MOCLDY    32  20  61 NW10      30.11R WCI  24
ISLIP          CLOUDY    36  23  59 N12       30.10R WCI  28
NEW YORK CITY  MOCLDY    33  21  61 NW16G25   30.15R WCI  23
CENTRAL PARK   MOCLDY    32  19  58 VRB5      30.16R WCI  27
$$

NYZ005>009-017-018-044>046-055-056-200100-
CENTRAL


CITY           SKY/WX    TMP DP  RH WIND       PRES   REMARKS
FULTON         CLOUDY    27  20  75 NW5       30.22R WCI  22
SYRACUSE       FLURRIES  26  21  81 NW8       30.22R WCI  18
ROME           CLOUDY    25  20  81 NW10      30.22R WCI  15
ELMIRA         CLOUDY    29  21  72 NW3       30.20R
BINGHAMTON     CLOUDY    23  20  88 NW12G18   30.13R WCI  12
MONTICELLO     CLOUDY    25  21  86 NW9G16    30.11R WCI  15
$$

NYZ026>034-041>043-200100-
NORTH


CITY           SKY/WX    TMP DP  RH WIND       PRES   REMARKS
WATERTOWN      CLEAR     20  14  77 CALM      30.23R
FORT DRUM      NOT AVBL
MASSENA        PTCLDY    15  11  83 SW6       30.25R WCI   6
SARANAC LAKE   CLOUDY    16  52 100 CALM      30.10R
PLATTSBURGH    CLEAR     19  15  84 CALM      30.20R
$$

NYZ001>004-010>016-019>021-200100-
WEST


CITY           SKY/WX    TMP DP  RH WIND       PRES   REMARKS
NIAGARA FALLS  CLOUDY    29  22  75 W9        30.24R WCI  20
BUFFALO        CLOUDY    29  21  72 W10       30.24R WCI  20
DUNKIRK        CLOUDY    28  21  75 SW5       30.26R WCI  23
JAMESTOWN      CLOUDY    21  18  86 W3        30.19S
WELLSVILLE     CLOUDY    23  17  78 NW12      30.15R WCI  12
ROCHESTER      CLOUDY    29  22  75 W7        30.23R WCI  22
PENN YAN       CLOUDY    28  19  69 VRB6      30.21R WCI  22
$$

             KEY
       WCI = WIND CHILL INDEX
       VSB = VISIBILITY
       HX  = HEAT INDEX
$$



USA.gov is the U.S. government's official web portal to all federal, state and local government web resources and services.